Location: Unspecified
(0.0000°N, 0.0000°E)
Time: 18:16:30
(UTC+02:00)

Envisat - Visible Passes

Search period start: 25 April 2018 00:00
Search period end: 05 May 2018 00:00
Orbit: 764 x 766 km, 98.2° (Epoch: 25 April)

Date Brightness Start Highest point End Pass type
(mag) Time Alt. Az. Time Alt. Az. Time Alt. Az.
25 Apr 3.2 21:51:42 61° N 21:51:42 61° N 21:55:52 10° N visible
26 Apr 3.9 21:14:30 28° ENE 21:14:30 28° ENE 21:18:28 10° NNE visible
26 Apr 5.7 22:54:43 14° WNW 22:54:43 14° WNW 22:56:04 10° WNW visible
27 Apr 4.2 22:17:31 39° WNW 22:17:31 39° WNW 22:21:09 10° NNW visible
28 Apr 3.1 21:40:20 55° NE 21:40:20 55° NE 21:44:39 10° N visible
29 Apr 4.2 21:03:08 21° ENE 21:03:08 21° ENE 21:06:48 10° NNE visible
29 Apr 5.3 22:43:20 20° WNW 22:43:20 20° WNW 22:45:42 10° NW visible
30 Apr 3.6 22:06:09 53° NW 22:06:09 53° NW 22:10:12 10° NNW visible
01 May 3.4 21:28:56 43° ENE 21:28:56 43° ENE 21:33:20 10° N visible
02 May 4.6 20:51:44 15° E 20:51:57 15° ENE 20:54:51 10° NE visible
02 May 4.9 22:31:57 27° WNW 22:31:57 27° WNW 22:35:06 10° NW visible
03 May 3.1 21:54:44 68° NNW 21:54:44 68° NNW 21:59:08 10° NNW visible
04 May 3.7 21:17:33 32° ENE 21:17:33 32° ENE 21:21:54 10° NNE visible
04 May 5.8 22:57:45 13° W 22:57:45 13° W 22:58:54 10° WNW visible
